Weather History for KSJS - April, 2014

Change the Weather History Date:

Saturday, April 26, 2014

  Actual Average Record
Temperature  
Mean Temperature 63 °F -  
Max Temperature 79 °F - - ()
Min Temperature 48 °F - - ()
Degree Days  
Heating Degree Days 2    
Growing Degree Days 13 (Base 50)    
Moisture  
Dew Point 43 °F    
Average Humidity 55    
Maximum Humidity 97    
Minimum Humidity 24    
Precipitation  
Precipitation 0.00 in - - ()
Sea Level Pressure  
Sea Level Pressure 29.96 in    
Wind  
Wind Speed 4 mph (WSW)    
Max Wind Speed 14 mph    
Max Gust Speed 22 mph    
Visibility 10 miles    
Events      
Averages and records for this station are not official NWS values.
T = Trace of Precipitation, MM = Missing Value Source: NWS Daily Summary

Daily Weather History Graph

Daily Weather History Graph

Search for Another Location

Airport or City:

Trip Planner

Search our weather history database for the weather conditions in past years. The results will help you decide how hot, cold, wet, or windy it might be!

Date:

Astronomy

Apr. 26, 2014 Rise Set
Actual Time 6:40 AM EDT 8:16 PM EDT
Civil Twilight 6:13 AM EDT 8:44 PM EDT
Nautical Twilight 5:39 AM EDT 9:17 PM EDT
Astronomical Twilight 5:04 AM EDT 9:53 PM EDT
Moon 5:01 AM EDT (4/26) 5:46 PM EDT (4/26)
Length of Visible Light 14h 31m
Length of Day
13h 35m
Waning Crescent, 8% of the Moon is Illuminated
Apr 26
Waning Crescent
Apr 29
New
May 6
First Quarter
May 14
Full
May 21
Last Quarter

Hourly Weather History & Observations

Time (EDT) Temp. Dew Point Humidity Pressure Visibility Wind Dir Wind Speed Gust Speed Precip Events Conditions
12:15 AM 52.5 °F 48.2 °F 85% 29.98 in 10.0 mi Calm Calm - N/A   Clear
12:35 AM 52.2 °F 48.4 °F 87% 29.99 in 10.0 mi Calm Calm - N/A   Clear
12:55 AM 52.7 °F 48.4 °F 85% 29.99 in 10.0 mi Calm Calm - N/A   Clear
1:15 AM 51.6 °F 47.8 °F 87% 29.98 in 10.0 mi Calm Calm - N/A   Clear
1:35 AM 51.3 °F 48.0 °F 89% 29.97 in 10.0 mi Calm Calm - N/A   Clear
1:55 AM 51.3 °F 48.2 °F 89% 29.97 in 10.0 mi SW 3.5 mph - N/A   Clear
2:15 AM 50.4 °F 48.2 °F 92% 29.97 in 10.0 mi Calm Calm - N/A   Clear
2:35 AM 51.1 °F 47.8 °F 89% 29.96 in 10.0 mi South 3.5 mph - N/A   Clear
2:55 AM 50.7 °F 47.8 °F 90% 29.95 in 10.0 mi SSW 4.6 mph - N/A   Clear
3:15 AM 49.6 °F 47.5 °F 92% 29.95 in 10.0 mi SW 3.5 mph - N/A   Clear
3:35 AM 48.9 °F 47.7 °F 95% 29.95 in 10.0 mi SW 3.5 mph - N/A   Clear
3:55 AM 48.2 °F 47.5 °F 97% 29.95 in 7.0 mi SW 4.6 mph - N/A   Clear
4:15 AM 49.1 °F 47.5 °F 94% 29.96 in 10.0 mi SW 3.5 mph - N/A   Clear
4:35 AM 49.1 °F 47.5 °F 94% 29.96 in 10.0 mi SW 4.6 mph - N/A   Clear
4:55 AM 49.3 °F 47.7 °F 94% 29.96 in 10.0 mi SW 5.8 mph - N/A   Clear
5:15 AM 49.1 °F 47.7 °F 95% 29.96 in 10.0 mi SW 5.8 mph - N/A   Clear
5:35 AM 50.0 °F 47.7 °F 92% 29.96 in 10.0 mi SW 4.6 mph - N/A   Clear
5:55 AM 50.0 °F 47.7 °F 92% 29.97 in 10.0 mi SW 5.8 mph - N/A   Clear
6:15 AM 49.3 °F 47.3 °F 93% 29.97 in 10.0 mi WSW 4.6 mph - N/A   Clear
6:35 AM 49.1 °F 47.1 °F 93% 29.99 in 10.0 mi SW 4.6 mph - N/A   Clear
6:55 AM 49.6 °F 46.9 °F 90% 29.99 in 10.0 mi SW 4.6 mph - N/A   Clear
7:15 AM 49.6 °F 46.4 °F 89% 30.00 in 10.0 mi SW 4.6 mph - N/A   Clear
7:35 AM 50.5 °F 46.6 °F 86% 30.00 in 10.0 mi SSW 4.6 mph - N/A   Clear
7:55 AM 51.4 °F 46.4 °F 83% 30.00 in 10.0 mi SSW 6.9 mph - N/A   Clear
8:15 AM 51.8 °F 46.6 °F 82% 29.99 in 10.0 mi SSW 6.9 mph - N/A   Clear
8:35 AM 52.7 °F 46.9 °F 81% 29.99 in 10.0 mi SSW 6.9 mph - N/A   Clear
8:55 AM 54.1 °F 47.5 °F 78% 29.99 in 10.0 mi SW 4.6 mph - N/A   Clear
9:15 AM 55.8 °F 47.5 °F 74% 30.00 in 10.0 mi SW 8.1 mph - N/A   Clear
9:35 AM 56.8 °F 47.7 °F 71% 29.99 in 10.0 mi SW 5.8 mph - N/A   Clear
10:15 AM 61.2 °F 47.3 °F 60% 29.99 in 10.0 mi SW 8.1 mph - N/A   Clear
10:35 AM 63.0 °F 47.5 °F 57% 30.00 in 10.0 mi SW 6.9 mph - N/A   Clear
10:55 AM 64.6 °F 47.1 °F 53% 30.00 in 10.0 mi SW 5.8 mph - N/A   Clear
11:15 AM 66.9 °F 46.6 °F 48% 29.99 in 10.0 mi WSW 8.1 mph - N/A   Clear
11:35 AM 68.4 °F 46.8 °F 46% 30.00 in 10.0 mi West 6.9 mph - N/A   Clear
11:55 AM 70.0 °F 46.2 °F 43% 29.99 in 10.0 mi SW 8.1 mph - N/A   Clear
12:15 PM 70.7 °F 44.8 °F 39% 29.99 in 10.0 mi West 9.2 mph 17.3 mph N/A   Clear
12:35 PM 72.1 °F 42.3 °F 34% 29.98 in 10.0 mi WNW 9.2 mph - N/A   Clear
12:55 PM 73.2 °F 41.4 °F 32% 29.98 in 10.0 mi West 13.8 mph 19.6 mph N/A   Clear
1:15 PM 74.3 °F 42.1 °F 31% 29.97 in 10.0 mi West 13.8 mph 20.7 mph N/A   Clear
1:35 PM 75.2 °F 41.9 °F 30% 29.97 in 10.0 mi WSW 11.5 mph 18.4 mph N/A   Clear
1:55 PM 75.7 °F 41.7 °F 30% 29.97 in 10.0 mi West 12.7 mph - N/A   Clear
2:15 PM 75.6 °F 41.5 °F 29% 29.96 in 10.0 mi WNW 10.4 mph 18.4 mph N/A   Clear
2:35 PM 76.8 °F 42.4 °F 29% 29.96 in 10.0 mi WNW 9.2 mph 19.6 mph N/A   Clear
2:55 PM 76.6 °F 41.2 °F 28% 29.96 in 10.0 mi West 11.5 mph 21.9 mph N/A   Clear
3:15 PM 77.2 °F 41.5 °F 28% 29.94 in 10.0 mi NW 9.2 mph - N/A   Clear
3:35 PM 77.5 °F 41.5 °F 28% 29.94 in 10.0 mi West 9.2 mph - N/A   Clear
3:55 PM 77.9 °F 41.9 °F 28% 29.93 in 10.0 mi WSW 9.2 mph 18.4 mph N/A   Clear
4:15 PM 78.4 °F 39.7 °F 25% 29.93 in 10.0 mi WNW 9.2 mph 17.3 mph N/A   Clear
4:35 PM 78.6 °F 40.3 °F 25% 29.92 in 10.0 mi WNW 6.9 mph - N/A   Clear
4:55 PM 77.9 °F 40.1 °F 26% 29.92 in 10.0 mi West 6.9 mph - N/A   Clear
5:15 PM 78.3 °F 40.8 °F 26% 29.92 in 10.0 mi West 10.4 mph 16.1 mph N/A   Clear
5:35 PM 78.3 °F 38.5 °F 24% 29.93 in 10.0 mi West 10.4 mph 18.4 mph N/A   Clear
5:55 PM 77.9 °F 37.9 °F 24% 29.93 in 10.0 mi West 9.2 mph 19.6 mph N/A   Clear
6:15 PM 77.0 °F 37.8 °F 24% 29.94 in 10.0 mi WNW 10.4 mph - N/A   Clear
6:35 PM 76.1 °F 36.5 °F 24% 29.94 in 10.0 mi West 11.5 mph - N/A   Clear
6:55 PM 75.4 °F 37.0 °F 25% 29.94 in 10.0 mi WNW 8.1 mph 17.3 mph N/A   Clear
7:15 PM 74.7 °F 37.4 °F 26% 29.94 in 10.0 mi WNW 4.6 mph - N/A   Clear
7:35 PM 73.8 °F 37.0 °F 26% 29.94 in 10.0 mi WNW 8.1 mph - N/A   Clear
7:55 PM 73.2 °F 36.5 °F 26% 29.94 in 10.0 mi WNW 5.8 mph - N/A   Clear
8:15 PM 72.1 °F 36.7 °F 27% 29.94 in 10.0 mi WNW 3.5 mph - N/A   Clear
8:35 PM 71.2 °F 36.9 °F 28% 29.95 in 10.0 mi WNW 3.5 mph - N/A   Clear
8:55 PM 70.7 °F 37.9 °F 30% 29.95 in 10.0 mi WNW 3.5 mph - N/A   Clear
9:15 PM 69.4 °F 38.1 °F 32% 29.95 in 10.0 mi West 3.5 mph - N/A   Clear
9:35 PM 69.4 °F 38.7 °F 32% 29.95 in 10.0 mi West 4.6 mph - N/A   Clear
9:55 PM 68.7 °F 38.7 °F 33% 29.95 in 10.0 mi West 3.5 mph - N/A   Clear
10:15 PM 68.4 °F 37.9 °F 33% 29.96 in 10.0 mi Calm Calm - N/A   Clear
10:35 PM 66.2 °F 39.4 °F 37% 29.96 in 10.0 mi Calm Calm - N/A   Clear
10:55 PM 66.9 °F 38.3 °F 35% 29.96 in 10.0 mi SW 3.5 mph - N/A   Clear
11:15 PM 66.6 °F 37.9 °F 35% 29.96 in 10.0 mi SW 3.5 mph - N/A   Clear
11:35 PM 66.7 °F 37.8 °F 34% 29.96 in 10.0 mi SW 3.5 mph - N/A   Clear
11:55 PM 64.8 °F 38.1 °F 37% 29.96 in 10.0 mi SW 4.6 mph - N/A   Clear